Regional Weather Roundup
Issued by NWS

Home | Current Version | Previous Version | Text Only | Print | Product List | Glossary Off
Versions: 1 2 3 4 5 6 7 8 9 10 11 12 13 14 15 16 17 18 19 20 21 22 23 24 25 26 27 28 29 30 31 32 33 34 35 36 37 38 39 40 41 42 43 44 45 46 47 48 49 50

000
ASUS43 KIND 011809
RWRIN

WEATHER ROUNDUP FOR INDIANA
NATIONAL WEATHER SERVICE INDIANAPOLIS IN
200 PM EDT WED APR 01 2015

NOTE: "FAIR" INDICATES FEW OR NO CLOUDS BELOW 12,000 FEET WITH NO
SIGNIFICANT WEATHER AND/OR OBSTRUCTIONS TO VISIBILITY.

* - STATION DOES NOT REPORT WEATHER SUCH AS PRECIPITATION OR FOG.

+ - STATION NOT QUALITY CONTROLLED BY THE NATIONAL WEATHER SERVICE.
    USE DATA WITH CAUTION...ESPECIALLY DEWPOINT AND RELATIVE
    HUMIDITY OBSERVATIONS.

INZ001>003-010>013-019-020-011900-
NORTHWEST INDIANA

CITY           SKY/WX    TMP DP  RH WIND       PRES   REMARKS
GARY /AIRPORT/ SUNNY     68  28  22 S12       30.03F
KNOX *+        SUNNY     64   1   8 S7        30.03F
LA PORTE +     SUNNY     67  36  32 SW7       30.04F
6HR MIN TEMP:  34; 6HR MAX TEMP:  67;

MICHIGAN CITY+ SUNNY     66  27  22 SW9       30.03F
MONTICELLO +   SUNNY     65  38  36 SE5       30.05F
6HR MIN TEMP:  36; 6HR MAX TEMP:  65;

RENSSELAER +   SUNNY     66  37  34 S8        30.05S
VALPARAISO     SUNNY     66  34  30 SW10      30.04F
6HR MIN TEMP:  36; 6HR MAX TEMP:  66;


$$

LMZ046-743>745-011900-
SOUTHERN LAKE MICHIGAN

STATION/POSITION TIME  TEMP WIND        PRES
                       AIR  DIR/SP/G
                 (UTC) (F)  (DEG/KT/KT) (MB)
BURNS HARBOR     1800   45   60/  3/  6 1017.6S
MICHIGAN CITY    1800   43   30/ 10/ 12   N/A

$$

INZ004-005-014>016-021>024-011900-
NORTH CENTRAL INDIANA

CITY           SKY/WX    TMP DP  RH WIND       PRES   REMARKS
ELKHART        SUNNY     64  30  27 W12       30.07F
GOSHEN         SUNNY     65  38  36 SW12      30.06F
6HR MIN TEMP:  36; 6HR MAX TEMP:  65;

LOGANSPORT +   SUNNY     64  32  29 S8        30.07F
PERU/GRISSOM   SUNNY     66  35  31 S10       30.06F
6HR MIN TEMP:  35; 6HR MAX TEMP:  66;

ROCHESTER +    SUNNY     68  36  30 S6        30.07F
SOUTH BEND     SUNNY     65  35  33 SW9       30.06F
6HR MIN TEMP:  31; 6HR MAX TEMP:  65;

WARSAW +       SUNNY     64  36  34 S5        30.07F

$$

INZ006>009-017-018-025>027-011900-
NORTHEAST INDIANA

CITY           SKY/WX    TMP DP  RH WIND       PRES   REMARKS
ANGOLA *+      SUNNY     63  37  39 W13       30.07F
AUBURN +       SUNNY     63  32  31 W7        30.09F
FORT WAYNE     MOSUNNY   63  35  35 SW12      30.10F
6HR MIN TEMP:  32; 6HR MAX TEMP:  64;

HUNTINGTON +   SUNNY     63  27  25 W5        30.08F
6HR MIN TEMP:  35; 6HR MAX TEMP:  64;


$$

INZ028-029-035-036-043>045-051>053-011900-
WEST CENTRAL INDIANA

CITY           SKY/WX    TMP DP  RH WIND       PRES   REMARKS
CRAWFORDSVL +  SUNNY     64  26  24 S12       30.07F
6HR MIN TEMP:  35; 6HR MAX TEMP:  64;

GREENCASTLE +  SUNNY     64  30  27 SE10      30.09F
LAFAYETTE      SUNNY     66  35  31 S12G18    30.05F
6HR MIN TEMP:  38; 6HR MAX TEMP:  66;

TERRE HAUTE    SUNNY     67  40  37 SE10      30.07F
6HR MIN TEMP:  40; 6HR MAX TEMP:  67;


$$

INZ030>032-037>040-046>048-054>057-064-065-011900-
CENTRAL INDIANA

CITY           SKY/WX    TMP DP  RH WIND       PRES   REMARKS
ANDERSON       SUNNY     64  30  27 SE12      30.11
CP ATTERBURY + SUNNY     64  32  29 S12       30.11F
COLUMBUS       SUNNY     63  25  23 S7        30.12F
FISHERS *+     SUNNY     63  39  42 SE8       30.09
FRANKFORT +    SUNNY     67  37  32 SE9       30.09F
6HR MIN TEMP:  37; 6HR MAX TEMP:  67;

GREENWOOD *+   SUNNY     63  27  25 S10       30.11F
INDIANAPOLIS   MOSUNNY   64  32  30 SE9G17    30.08F
6HR MIN TEMP:  38; 6HR MAX TEMP:  65;

-EAGLE CREEK   SUNNY     63  33  32 SE10      30.09F
6HR MIN TEMP:  36; 6HR MAX TEMP:  63;

MARION +       SUNNY     62  31  31 SE8       30.10F
MT COMFORT *+  SUNNY     63  16  16 S9        30.11S
SHELBYVILLE    SUNNY     64  36  35 S8        30.11F
6HR MIN TEMP:  38; 6HR MAX TEMP:  64;

ZIONSVILLE +   SUNNY     64  31  28 SE7       30.09F
6HR MIN TEMP:  38; 6HR MAX TEMP:  64;


$$

INZ033-034-041-042-049-050-058-059-011900-
EAST CENTRAL INDIANA

CITY           SKY/WX    TMP DP  RH WIND       PRES   REMARKS
MUNCIE         SUNNY     63  33  32 VRB3      30.09F
6HR MIN TEMP:  38; 6HR MAX TEMP:  63;


$$

INZ060-061-067>069-081>083-085>088-011900-
SOUTHWEST INDIANA

CITY           SKY/WX    TMP DP  RH WIND       PRES   REMARKS
EVANSVILLE     MOSUNNY   67  39  35 E8        30.09F
6HR MIN TEMP:  42; 6HR MAX TEMP:  67;

HUNTINGBURG *+ SUNNY     66  37  34 S12       30.09F
6HR MIN TEMP:  39; 6HR MAX TEMP:  66;

WASHINGTON +   SUNNY     65  33  29 S7        30.08F
6HR MIN TEMP:  40; 6HR MAX TEMP:  65;


$$

INZ062-063-066-070>080-084-089>092-011900-
SOUTH CENTRAL AND SOUTHEAST INDIANA

CITY           SKY/WX    TMP DP  RH WIND       PRES   REMARKS
BEDFORD +      SUNNY     64  30  27 S9        30.10
BLOOMINGTON    SUNNY     66  32  28 S8        30.09F
6HR MIN TEMP:  41; 6HR MAX TEMP:  66;

MADISON *+     SUNNY     63  28  27 SE7       30.14F
NORTH VERNON + SUNNY     64  30  27 S5        30.13F
SEYMOUR +      SUNNY     66  37  34 S7        30.11F

$$



USA.gov is the U.S. government's official web portal to all federal, state and local government web resources and services.